[[{"header":{"parameterUnit":"m.s-1","parameterCategory":1,"la1":30.2991,"la2":30.254,"lo1":-89.0895,"lo2":-89.0444,"dy":0.0017,"dx":0.0017,"nx":28,"ny":28,"refTime":"2025-04-24T03:00:00:Z","depth":0,"parameterNumber":2,"parameterNumberName":"U-component_of_WINDS"},"data":[0,0,0,0,0,0,0,0,0,0,0,0,0,0,0,0,0,0,0,0,0,0,0,0,0,0,0,0,0,0,0,0,0,0,0,0,0,0,0,0,0,0,0,0,0,0,0,0,0,0,0,0,0,0,0,0,0,0,-1.3778,-1.3778,0,-1.3774,-1.3774,-1.3774,-1.3805,-1.3806,-1.3807,-1.3808,-1.3802,-1.3801,-1.38,0,0,0,0,0,0,0,0,0,0,0,0,0,-1.3813,-1.3812,-1.3778,-1.3778,-1.3778,-1.3774,-1.3774,-1.3774,-1.3805,-1.3806,-1.3807,-1.3808,-1.3802,-1.3801,-1.38,0,0,0,0,0,0,0,0,0,0,0,0,0,-1.3802,-1.3812,-1.3778,-1.3793,-1.3794,-1.3774,-1.3774,-1.3774,-1.3805,-1.3806,-1.3808,-1.3809,-1.3802,-1.3801,-1.38,-1.3764,0,0,-1.3795,-1.3794,0,0,0,0,0,0,0,0,-1.3803,-1.3801,-1.3791,-1.3792,-1.3793,-1.3792,-1.3784,-1.3771,-1.3805,-1.3801,-1.3808,-1.3809,-1.3797,-1.3796,-1.3793,-1.3764,-1.3764,-1.3795,-1.3794,-1.3793,-1.3793,0,0,0,0,0,0,0,-1.3803,-1.3801,-1.3776,-1.3791,-1.3792,-1.38,-1.38,-1.3782,-1.3792,-1.3801,-1.3804,-1.3803,-1.3798,-1.3794,-1.3793,-1.3764,-1.3795,-1.3794,-1.3793,-1.3792,-1.371,-1.3709,0,0,0,0,0,0,-1.3802,-1.3801,-1.3777,-1.3776,-1.3801,-1.3799,-1.3798,-1.3791,-1.3792,-1.3793,-1.3802,-1.3804,-1.3796,-1.3794,-1.3793,-1.3753,-1.3793,-1.3792,-1.3791,-1.3712,-1.371,-1.3709,0,0,0,0,0,0,-1.3803,-1.38,-1.3777,-1.379,-1.3787,-1.3797,-1.3788,-1.379,-1.3786,-1.3792,-1.3794,-1.3795,-1.3797,-1.3795,-1.3772,-1.3754,-1.3791,-1.379,-1.3713,-1.3711,-1.3709,-1.3673,0,0,0,0,0,0,-1.3804,-1.38,-1.3786,-1.3789,-1.3786,-1.3756,-1.3787,-1.3789,-1.3783,-1.3787,-1.3787,-1.3788,-1.3798,-1.3774,-1.3771,-1.3752,-1.3789,-1.3715,-1.3712,-1.371,-1.3676,-1.367,-1.3666,0,0,0,0,0,-1.3805,-1.3774,-1.3785,-1.3781,-1.3769,-1.3754,-1.3753,-1.3765,-1.3782,-1.3768,-1.3773,-1.3788,-1.3757,-1.3772,-1.3768,-1.3749,-1.3716,-1.3713,-1.371,-1.3679,-1.3672,-1.3666,0,0,0,0,0,0,-1.3766,-1.3775,-1.3786,-1.3756,-1.3755,-1.376,-1.3742,-1.3757,-1.3749,-1.3753,-1.3768,-1.3768,-1.3743,-1.3744,-1.376,-1.3717,-1.3739,-1.3736,-1.3717,-1.371,-1.3705,-1.3705,-1.3788,0,0,0,0,0,-1.3754,-1.3742,-1.375,-1.3723,-1.3722,-1.3732,-1.3726,-1.3736,-1.3735,-1.3734,-1.3737,-1.3735,-1.3725,-1.3718,-1.3709,-1.3678,-1.3679,-1.3663,-1.3658,-1.3653,-1.3649,-1.3636,-1.363,-1.3699,-1.3699,-1.3699,0,0,-1.3729,-1.3733,-1.3723,-1.3715,-1.3715,-1.3702,-1.3731,-1.3715,-1.3707,-1.3731,-1.3711,-1.3714,-1.3713,-1.3687,-1.3675,-1.3686,-1.3631,-1.365,-1.3646,-1.3644,-1.3633,-1.3626,-1.362,-1.3697,-1.3698,-1.3698,0,0,-1.3677,-1.3678,-1.3656,-1.3657,-1.3658,-1.3666,-1.3661,-1.3665,-1.3668,-1.3649,-1.3668,-1.3658,-1.364,-1.364,-1.3637,-1.3591,-1.3605,-1.3587,-1.3558,-1.3546,-1.354,-1.3535,-1.352,-1.3515,-1.3584,-1.3584,-1.3584,0,-1.3645,-1.3627,-1.3643,-1.3628,-1.3624,-1.3649,-1.3628,-1.3628,-1.3625,-1.3623,-1.3636,-1.3617,-1.3618,-1.3593,-1.3583,-1.3579,-1.3575,-1.3586,-1.354,-1.3535,-1.3531,-1.3517,-1.3511,-1.3582,-1.3582,-1.3582,-1.3582,0,-1.3589,-1.3576,-1.3559,-1.3558,-1.3553,-1.3534,-1.3549,-1.3543,-1.3555,-1.3562,-1.3544,-1.3547,-1.354,-1.3536,-1.3546,-1.3514,-1.3521,-1.3537,-1.356,-1.3522,-1.3509,-1.3504,-1.3579,-1.3579,-1.358,-1.3581,0,0,-1.3507,-1.352,-1.3513,-1.3515,-1.352,-1.351,-1.3495,-1.349,-1.3485,-1.3484,-1.3472,-1.3459,-1.3475,-1.3472,-1.3483,-1.3472,-1.3438,-1.349,-1.349,-1.3481,-1.3406,-1.3394,-1.3387,-1.3449,-1.3448,-1.3447,-1.3406,0,-1.3458,-1.3431,-1.3448,-1.342,-1.341,-1.3436,-1.3423,-1.3425,-1.3433,-1.3426,-1.3435,-1.3426,-1.3447,-1.3446,-1.3436,-1.3444,-1.3423,-1.3447,-1.3438,-1.3438,-1.3437,-1.338,-1.3366,-1.3327,-1.3401,-1.34,-1.34,0,-1.3394,-1.3393,-1.3364,-1.3375,-1.3371,-1.3359,-1.3358,-1.3351,-1.3356,-1.3363,-1.3362,-1.3378,-1.3365,-1.339,-1.3373,-1.339,-1.3388,-1.3392,-1.3391,-1.3389,-1.3415,-1.3377,-1.3315,-1.3309,-1.3392,-1.3392,-1.3393,0,-1.3339,-1.333,-1.3313,-1.3313,-1.3325,-1.3316,-1.3321,-1.3327,-1.3324,-1.3324,-1.3323,-1.3321,-1.332,-1.3319,-1.3335,-1.3351,-1.3318,-1.3342,-1.3324,-1.3323,-1.3314,-1.3314,-1.325,-1.3313,-1.3313,-1.3313,-1.3313,0,-1.3281,-1.3263,-1.3289,-1.3277,-1.3259,-1.328,-1.326,-1.3268,-1.3274,-1.3266,-1.3289,-1.3281,-1.3302,-1.3298,-1.331,-1.3296,-1.3295,-1.3301,-1.3305,-1.3299,-1.3298,-1.3297,-1.33,-1.3312,-1.3312,-1.3312,-1.3313,0,-1.3215,-1.3232,-1.3215,-1.3229,-1.3233,-1.3218,-1.3231,-1.3222,-1.3234,-1.3223,-1.3222,-1.324,-1.3236,-1.3252,-1.325,-1.3259,-1.3239,-1.3247,-1.3237,-1.324,-1.3221,-1.3222,-1.3153,-1.3146,-1.3213,-1.3213,-1.3212,0,-1.3177,-1.3164,-1.3178,-1.3175,-1.3179,-1.3173,-1.3172,-1.3193,-1.3191,-1.3198,-1.3189,-1.3187,-1.3187,-1.3179,-1.3192,-1.3192,-1.3201,-1.3177,-1.32,-1.3196,-1.3201,-1.3202,-1.3202,-1.3171,-1.317,-1.3169,-1.3169,0,-1.3107,-1.3117,-1.3114,-1.3116,-1.3114,-1.3116,-1.3119,-1.3116,-1.3139,-1.3136,-1.3133,-1.3133,-1.3133,-1.3132,-1.3136,-1.3141,-1.316,-1.3162,-1.3158,-1.3151,-1.3147,-1.315,-1.3224,-1.3163,-1.3163,-1.3164,-1.3164,-1.3164,-1.3054,-1.3045,-1.3055,-1.3052,-1.3058,-1.3061,-1.3055,-1.3067,-1.3065,-1.3067,-1.3081,-1.3076,-1.3085,-1.3092,-1.3097,-1.3095,-1.3106,-1.31,-1.3098,-1.3096,-1.3093,-1.3148,-1.3095,-1.3096,-1.3096,-1.3096,-1.3096,0,-1.2986,-1.2995,-1.2993,-1.2998,-1.2997,-1.3016,-1.3022,-1.302,-1.3016,-1.3023,-1.3024,-1.3022,-1.3022,-1.3037,-1.304,-1.3035,-1.3044,-1.3035,-1.3035,-1.3037,-1.3082,-1.3086,-1.3028,-1.3028,-1.3028,-1.3028,-1.3028,-1.3029,-1.2951,-1.2937,-1.2949,-1.294,-1.2949,-1.2945,-1.2947,-1.2952,-1.2958,-1.2956,-1.2956,-1.2967,-1.2978,-1.2983,-1.2985,-1.299,-1.299,-1.2978,-1.2986,-1.3027,-1.3033,-1.304,-1.3043,-1.2978,-1.2978,-1.2941,-1.2941,-1.2941]},{"header":{"parameterUnit":"m.s-1","parameterCategory":1,"la1":30.2991,"la2":30.254,"lo1":-89.0895,"lo2":-89.0444,"dy":0.0017,"dx":0.0017,"nx":28,"ny":28,"refTime":"2025-04-24T03:00:00:Z","depth":0,"parameterNumber":3,"parameterNumberName":"V-component_of_WINDS"},"data":[0,0,0,0,0,0,0,0,0,0,0,0,0,0,0,0,0,0,0,0,0,0,0,0,0,0,0,0,0,0,0,0,0,0,0,0,0,0,0,0,0,0,0,0,0,0,0,0,0,0,0,0,0,0,0,0,0,0,4.5092,4.5096,0,4.5447,4.5451,4.5455,4.5606,4.5606,4.5605,4.5605,4.5958,4.5968,4.5978,0,0,0,0,0,0,0,0,0,0,0,0,0,4.4539,4.4548,4.5092,4.5096,4.5101,4.5446,4.5451,4.5456,4.5606,4.5606,4.5605,4.5604,4.5955,4.5967,4.5979,0,0,0,0,0,0,0,0,0,0,0,0,0,4.4824,4.4551,4.5091,4.5218,4.5233,4.5445,4.5451,4.5457,4.5607,4.5606,4.5605,4.5604,4.5951,4.5966,4.598,4.609,0,0,4.6026,4.6033,0,0,0,0,0,0,0,0,4.4808,4.4844,4.5195,4.5209,4.5227,4.5482,4.5386,4.5669,4.5607,4.5464,4.5605,4.5603,4.58,4.5827,4.5895,4.6107,4.6122,4.6027,4.6036,4.6043,4.6047,0,0,0,0,0,0,0,4.4788,4.483,4.5232,4.5199,4.5219,4.5255,4.5294,4.544,4.5632,4.5477,4.5489,4.5529,4.5808,4.588,4.5905,4.6127,4.6027,4.604,4.6049,4.6055,4.6448,4.6449,0,0,0,0,0,0,4.4748,4.4812,4.5221,4.5243,4.5011,4.5265,4.531,4.54,4.5631,4.5666,4.5529,4.5535,4.5855,4.5887,4.5918,4.6063,4.6043,4.6057,4.6065,4.6447,4.6448,4.645,0,0,0,0,0,0,4.4736,4.4783,4.5206,4.5031,4.5088,4.5276,4.5376,4.5408,4.5481,4.5671,4.5705,4.5568,4.5856,4.5897,4.6047,4.6077,4.6063,4.6077,4.6445,4.6447,4.6449,4.6353,0,0,0,0,0,0,4.4719,4.4778,4.4823,4.5031,4.5097,4.5332,4.5378,4.5415,4.5507,4.5517,4.5717,4.5749,4.5858,4.6024,4.6062,4.6098,4.6089,4.6443,4.6446,4.6448,4.6355,4.6352,4.635,0,0,0,0,0,4.4699,4.478,4.4825,4.4873,4.5157,4.5334,4.5371,4.5498,4.5509,4.5555,4.5678,4.5743,4.6068,4.6038,4.6082,4.6123,4.6442,4.6445,4.6448,4.6356,4.6353,4.635,0,0,0,0,0,0,4.4567,4.4809,4.4862,4.5013,4.5152,4.5359,4.5421,4.549,4.5627,4.563,4.5779,4.5823,4.5961,4.6057,4.602,4.6242,4.626,4.6272,4.6175,4.6173,4.6171,4.6145,4.6101,0,0,0,0,0,4.4556,4.4681,4.4885,4.4998,4.5066,4.5231,4.5313,4.5399,4.5548,4.5606,4.574,4.5879,4.6014,4.6098,4.6232,4.6369,4.6414,4.6418,4.6416,4.6413,4.6422,4.6502,4.6507,4.6461,4.6461,4.6461,0,0,4.4534,4.4681,4.4751,4.4976,4.5094,4.5219,4.528,4.5408,4.5502,4.5625,4.5777,4.5879,4.6045,4.619,4.626,4.6274,4.6445,4.6417,4.6413,4.6424,4.6506,4.651,4.6514,4.6463,4.6463,4.6462,0,0,4.4557,4.4681,4.4791,4.4908,4.5088,4.5197,4.5223,4.5421,4.5495,4.5651,4.5746,4.5857,4.6085,4.62,4.6287,4.6355,4.642,4.6394,4.6381,4.6458,4.6461,4.6465,4.649,4.6497,4.6402,4.6402,4.6402,0,4.4506,4.4701,4.4837,4.4963,4.5058,4.5179,4.529,4.5396,4.5608,4.567,4.5684,4.5974,4.6093,4.6267,4.6284,4.635,4.6384,4.6372,4.645,4.6456,4.6461,4.6487,4.6496,4.6398,4.6398,4.6399,4.6399,0,4.4629,4.4762,4.4829,4.5035,4.5138,4.5254,4.5407,4.5495,4.5572,4.5679,4.5835,4.5983,4.615,4.6197,4.6272,4.6382,4.6385,4.6422,4.6444,4.6459,4.6486,4.6497,4.6392,4.6393,4.6395,4.6396,0,0,4.4579,4.4861,4.4883,4.4979,4.5186,4.529,4.5412,4.5578,4.5651,4.5792,4.5898,4.6088,4.6125,4.6224,4.6313,4.638,4.6425,4.641,4.6416,4.6408,4.6556,4.6527,4.6537,4.6469,4.6472,4.6474,4.6542,0,4.4632,4.4859,4.4986,4.516,4.5285,4.5401,4.5507,4.5644,4.5748,4.5867,4.5979,4.6113,4.6151,4.6212,4.6283,4.6404,4.6457,4.6401,4.6567,4.6571,4.6523,4.6551,4.6521,4.6579,4.6553,4.6555,4.6557,0,4.4724,4.4868,4.5054,4.5249,4.5306,4.54,4.5563,4.5676,4.5833,4.5903,4.6015,4.6104,4.6235,4.6245,4.6427,4.6386,4.6461,4.6531,4.6536,4.6557,4.6565,4.6572,4.66,4.6609,4.6574,4.6573,4.6571,0,4.467,4.491,4.5054,4.5131,4.5361,4.5425,4.5523,4.568,4.5772,4.5913,4.5975,4.6127,4.6211,4.6326,4.6453,4.6449,4.6622,4.6643,4.6683,4.668,4.6715,4.6711,4.6755,4.6761,4.6761,4.676,4.676,0,4.4716,4.4826,4.5033,4.5121,4.5248,4.5391,4.5511,4.5618,4.5757,4.5867,4.5975,4.6074,4.6236,4.6354,4.6454,4.6589,4.6626,4.6685,4.671,4.6676,4.6669,4.6728,4.6727,4.6763,4.6762,4.6762,4.6762,0,4.4678,4.4821,4.4986,4.5191,4.5245,4.5329,4.5504,4.5593,4.5702,4.5839,4.5879,4.605,4.6196,4.6334,4.6527,4.6594,4.673,4.6762,4.6678,4.6692,4.6725,4.672,4.681,4.6829,4.6819,4.6819,4.6819,0,4.4698,4.4786,4.5002,4.5085,4.5182,4.5313,4.541,4.5554,4.5648,4.5835,4.5901,4.6056,4.6187,4.6414,4.6553,4.6702,4.6739,4.676,4.6762,4.6725,4.674,4.6734,4.6744,4.6757,4.6756,4.6756,4.6755,0,4.472,4.4787,4.4923,4.5084,4.5196,4.5328,4.5464,4.5525,4.5694,4.5795,4.5948,4.605,4.625,4.6401,4.6566,4.6664,4.6737,4.6754,4.6771,4.6738,4.6686,4.6715,4.6672,4.6751,4.6752,4.6752,4.6752,4.6752,4.4713,4.4797,4.4963,4.5111,4.5229,4.5354,4.5448,4.5571,4.5702,4.5879,4.5954,4.6108,4.6263,4.6493,4.659,4.6711,4.6728,4.6752,4.6759,4.6763,4.6756,4.6666,4.6741,4.6741,4.6741,4.6742,4.6742,0,4.4741,4.4854,4.4989,4.5178,4.5293,4.5356,4.551,4.5601,4.5737,4.5877,4.6005,4.618,4.6328,4.6479,4.6635,4.6702,4.674,4.6738,4.6735,4.6757,4.6732,4.6702,4.6706,4.6706,4.6706,4.6706,4.6706,4.6706,4.477,4.4916,4.5003,4.5208,4.532,4.5475,4.5558,4.5673,4.5786,4.5978,4.6103,4.6202,4.6346,4.6513,4.6651,4.6691,4.6744,4.6733,4.6782,4.6756,4.6758,4.676,4.6733,4.6743,4.6743,4.6797,4.6798,4.6798]}]]